SKW5938 KOTH-KSFO

Flight info

Callsign SKW5938
Flight time 1h 3m
Altitude 33000
Route LEDGE CEC KO60C AMAKR BDEGA4
Aircraft E75L/M-SDE3GILORVW/S

Departure

Time 2026-04-16 22:47
Airport Southwest Oregon Regional Airport (KOTH)

Arrival

Time 2026-04-16 23:50
Airport San Francisco International Airport (KSFO)
Time Latitude Longitude Altitude Speed Heading
2026-04-16 22:13 43.41684 -124.24982 47 ft 0 kts 207°
2026-04-16 22:39 43.41695 -124.24974 26 ft 2 kts 208°
2026-04-16 22:39 43.41706 -124.24964 23 ft 2 kts 232°
2026-04-16 22:39 43.41709 -124.24948 26 ft 2 kts 282°
2026-04-16 22:40 43.41706 -124.24939 23 ft 0 kts 303°
2026-04-16 22:41 43.41706 -124.24940 23 ft 0 kts 308°
2026-04-16 22:42 43.41710 -124.24943 23 ft 1 kts 334°
2026-04-16 22:42 43.41724 -124.24946 24 ft 3 kts 351°
2026-04-16 22:42 43.41754 -124.24957 24 ft 6 kts 342°
2026-04-16 22:42 43.41796 -124.24956 24 ft 7 kts 32°
2026-04-16 22:43 43.41825 -124.24898 23 ft 9 kts 60°
2026-04-16 22:43 43.41859 -124.24815 25 ft 11 kts 60°
2026-04-16 22:43 43.41882 -124.24707 25 ft 12 kts 121°
2026-04-16 22:43 43.41807 -124.24632 25 ft 15 kts 148°
2026-04-16 22:44 43.41712 -124.24555 23 ft 17 kts 150°
2026-04-16 22:44 43.41599 -124.24465 23 ft 20 kts 149°
2026-04-16 22:44 43.41472 -124.24363 23 ft 22 kts 149°
2026-04-16 22:44 43.41331 -124.24249 24 ft 25 kts 149°
2026-04-16 22:45 43.41189 -124.24133 27 ft 22 kts 149°
2026-04-16 22:45 43.41059 -124.24028 27 ft 20 kts 149°
2026-04-16 22:45 43.40952 -124.23943 25 ft 12 kts 149°
2026-04-16 22:45 43.40918 -124.23915 26 ft 4 kts 149°
2026-04-16 22:46 43.40899 -124.23876 30 ft 6 kts 93°
2026-04-16 22:46 43.40918 -124.23818 26 ft 8 kts 58°
2026-04-16 22:46 43.40961 -124.23808 27 ft 6 kts 330°
2026-04-16 22:46 43.40970 -124.23815 27 ft 14 kts 330°
2026-04-16 22:47 43.41341 -124.24112 22 ft 108 kts 329°
2026-04-16 22:47 43.42132 -124.24757 620 ft 137 kts 329°
2026-04-16 22:47 43.42826 -124.25735 1593 ft 160 kts 294°
2026-04-16 22:47 43.42680 -124.27319 2686 ft 181 kts 244°
2026-04-16 22:48 43.41861 -124.28699 3797 ft 193 kts 241°
2026-04-16 22:48 43.41562 -124.30498 4737 ft 194 kts 282°
2026-04-16 22:48 43.42139 -124.32136 5818 ft 198 kts 319°
2026-04-16 22:48 43.43419 -124.32975 6600 ft 220 kts 354°
2026-04-16 22:49 43.44972 -124.32605 7551 ft 244 kts 27°
2026-04-16 22:49 43.46105 -124.30815 8701 ft 261 kts 65°
2026-04-16 22:49 43.46296 -124.28314 10366 ft 268 kts 95°
2026-04-16 22:49 43.45548 -124.25837 11397 ft 299 kts 120°
2026-04-16 22:50 43.44264 -124.23474 12377 ft 314 kts 123°
2026-04-16 22:50 43.42931 -124.20976 13323 ft 333 kts 121°
2026-04-16 22:50 43.41614 -124.18252 14246 ft 350 kts 120°
2026-04-16 22:50 43.39898 -124.15681 14756 ft 385 kts 142°
2026-04-16 22:51 43.37397 -124.14189 15555 ft 403 kts 169°
2026-04-16 22:51 43.34587 -124.14141 16462 ft 408 kts 192°
2026-04-16 22:51 43.31742 -124.14749 17324 ft 421 kts 191°
2026-04-16 22:51 43.28795 -124.15249 18220 ft 432 kts 191°
2026-04-16 22:52 43.25780 -124.15700 19050 ft 440 kts 190°
2026-04-16 22:52 43.22713 -124.16131 19895 ft 446 kts 190°
2026-04-16 22:52 43.19608 -124.16594 20691 ft 452 kts 191°
2026-04-16 22:52 43.16462 -124.17053 21489 ft 458 kts 191°
2026-04-16 22:53 43.13276 -124.17527 22280 ft 463 kts 192°
2026-04-16 22:53 43.10069 -124.18024 23163 ft 464 kts 192°
2026-04-16 22:53 43.06842 -124.18540 23895 ft 470 kts 191°
2026-04-16 22:53 43.03541 -124.18693 24492 ft 479 kts 186°
2026-04-16 22:54 43.00201 -124.18817 25097 ft 483 kts 187°
2026-04-16 22:54 42.96830 -124.18957 25675 ft 487 kts 187°
2026-04-16 22:54 42.93429 -124.19103 26252 ft 491 kts 187°
2026-04-16 22:54 42.89996 -124.19258 26793 ft 496 kts 187°
2026-04-16 22:55 42.86538 -124.19418 27345 ft 499 kts 187°
2026-04-16 22:55 42.83058 -124.19573 27878 ft 502 kts 187°
2026-04-16 22:55 42.79607 -124.19724 29019 ft 488 kts 187°
2026-04-16 22:55 42.76232 -124.19868 29966 ft 482 kts 187°
2026-04-16 22:56 42.72912 -124.20023 30855 ft 474 kts 188°
2026-04-16 22:56 42.69635 -124.20172 31398 ft 469 kts 188°
2026-04-16 22:56 42.66388 -124.20322 31743 ft 466 kts 188°
2026-04-16 22:56 42.63151 -124.20480 32028 ft 465 kts 188°
2026-04-16 22:57 42.59914 -124.20630 32248 ft 466 kts 188°
2026-04-16 22:57 42.56681 -124.20794 32470 ft 466 kts 188°
2026-04-16 22:57 42.53439 -124.20948 32711 ft 466 kts 188°
2026-04-16 22:57 42.50188 -124.21089 32890 ft 467 kts 188°
2026-04-16 22:58 42.47001 -124.21221 33223 ft 464 kts 188°
2026-04-16 22:58 42.43763 -124.21369 33277 ft 468 kts 188°
2026-04-16 22:58 42.37189 -124.21680 33323 ft 477 kts 188°
2026-04-16 22:59 42.30500 -124.21991 33338 ft 484 kts 188°
2026-04-16 22:59 42.23724 -124.22292 33389 ft 491 kts 188°
2026-04-16 23:00 42.17957 -124.22553 33365 ft 497 kts 188°
2026-04-16 23:00 42.11013 -124.22858 33334 ft 502 kts 188°
2026-04-16 23:01 42.03992 -124.23173 33343 ft 507 kts 188°
2026-04-16 23:01 41.96913 -124.23494 33320 ft 511 kts 187°
2026-04-16 23:02 41.89783 -124.23813 33348 ft 512 kts 187°
2026-04-16 23:02 41.82630 -124.24135 33310 ft 516 kts 187°
2026-04-16 23:03 41.75430 -124.23998 33340 ft 523 kts 177°
2026-04-16 23:03 41.68194 -124.22610 33313 ft 527 kts 176°
2026-04-16 23:04 41.60920 -124.21252 33317 ft 528 kts 176°
2026-04-16 23:04 41.53637 -124.19911 33317 ft 528 kts 176°
2026-04-16 23:05 41.46397 -124.18590 33308 ft 529 kts 176°
2026-04-16 23:05 41.42774 -124.17929 33271 ft 516 kts 176°
2026-04-16 23:05 41.39292 -124.17293 33215 ft 496 kts 176°
2026-04-16 23:06 41.35883 -124.16677 33320 ft 496 kts 176°
2026-04-16 23:06 41.32434 -124.16058 33335 ft 503 kts 176°
2026-04-16 23:06 41.25441 -124.14797 33348 ft 510 kts 176°
2026-04-16 23:07 41.18428 -124.13534 33308 ft 509 kts 176°
2026-04-16 23:07 41.11394 -124.12271 33297 ft 511 kts 176°
2026-04-16 23:08 41.04343 -124.11007 33291 ft 512 kts 176°
2026-04-16 23:08 40.97289 -124.09745 33286 ft 512 kts 176°
2026-04-16 23:09 40.90229 -124.08484 33283 ft 510 kts 176°
2026-04-16 23:09 40.83215 -124.07235 33295 ft 509 kts 176°
2026-04-16 23:10 40.76196 -124.05988 33295 ft 510 kts 176°
2026-04-16 23:10 40.69163 -124.04741 33290 ft 510 kts 176°
2026-04-16 23:11 40.62135 -124.03496 33303 ft 509 kts 176°
2026-04-16 23:11 40.55109 -124.02641 33324 ft 503 kts 182°
2026-04-16 23:12 40.48107 -124.02353 33295 ft 503 kts 182°
2026-04-16 23:12 40.41108 -124.02030 33275 ft 504 kts 182°
2026-04-16 23:13 40.34089 -124.01705 33283 ft 505 kts 182°
2026-04-16 23:13 40.27060 -124.01358 33262 ft 505 kts 182°
2026-04-16 23:14 40.20029 -124.01015 33250 ft 506 kts 182°
2026-04-16 23:14 40.12983 -124.00666 33238 ft 506 kts 182°
2026-04-16 23:15 40.02416 -124.00157 33202 ft 508 kts 182°
2026-04-16 23:16 39.95402 -123.99010 33183 ft 509 kts 172°
2026-04-16 23:16 39.88470 -123.97220 33192 ft 508 kts 172°
2026-04-16 23:17 39.81527 -123.95455 33195 ft 509 kts 172°
2026-04-16 23:17 39.74575 -123.93698 33177 ft 509 kts 172°
2026-04-16 23:18 39.67622 -123.91950 33169 ft 508 kts 172°
2026-04-16 23:18 39.60692 -123.90213 33183 ft 507 kts 172°
2026-04-16 23:19 39.53763 -123.88481 33182 ft 507 kts 172°
2026-04-16 23:19 39.46835 -123.86754 33185 ft 507 kts 172°
2026-04-16 23:20 39.39953 -123.85042 33182 ft 507 kts 172°
2026-04-16 23:20 39.33025 -123.83323 33179 ft 506 kts 172°
2026-04-16 23:21 39.26116 -123.81611 33182 ft 506 kts 172°
2026-04-16 23:21 39.19207 -123.79903 33188 ft 506 kts 172°
2026-04-16 23:22 39.12304 -123.78200 33015 ft 503 kts 172°
2026-04-16 23:22 39.08885 -123.77355 32727 ft 499 kts 172°
2026-04-16 23:22 39.05478 -123.76513 32450 ft 499 kts 172°
2026-04-16 23:22 39.02069 -123.75648 32173 ft 500 kts 168°
2026-04-16 23:23 38.98848 -123.73922 31907 ft 506 kts 147°
2026-04-16 23:23 38.96200 -123.70990 31654 ft 503 kts 130°
2026-04-16 23:23 38.93831 -123.67678 31435 ft 505 kts 132°
2026-04-16 23:23 38.91401 -123.64407 31198 ft 507 kts 132°
2026-04-16 23:24 38.88955 -123.61148 30940 ft 507 kts 133°
2026-04-16 23:24 38.86493 -123.57909 30711 ft 507 kts 133°
2026-04-16 23:24 38.84017 -123.54684 30372 ft 508 kts 133°
2026-04-16 23:24 38.81530 -123.51437 29711 ft 508 kts 133°
2026-04-16 23:25 38.79081 -123.48186 29433 ft 507 kts 133°
2026-04-16 23:25 38.76592 -123.44981 29128 ft 509 kts 134°
2026-04-16 23:25 38.74090 -123.41777 28866 ft 507 kts 134°
2026-04-16 23:25 38.71602 -123.38577 28718 ft 506 kts 133°
2026-04-16 23:26 38.69111 -123.35402 28324 ft 505 kts 134°
2026-04-16 23:26 38.66633 -123.32304 27817 ft 492 kts 135°
2026-04-16 23:26 38.64190 -123.29277 27001 ft 487 kts 134°
2026-04-16 23:26 38.61810 -123.26257 26310 ft 477 kts 134°
2026-04-16 23:27 38.59481 -123.23307 25845 ft 464 kts 134°
2026-04-16 23:27 38.57220 -123.20448 25618 ft 452 kts 134°
2026-04-16 23:27 38.54992 -123.17635 25448 ft 451 kts 134°
2026-04-16 23:27 38.52756 -123.14816 25293 ft 454 kts 134°
2026-04-16 23:28 38.50500 -123.11975 25122 ft 456 kts 134°
2026-04-16 23:28 38.48246 -123.09128 24929 ft 456 kts 134°
2026-04-16 23:28 38.45988 -123.06277 24698 ft 456 kts 134°
2026-04-16 23:28 38.43736 -123.03440 24458 ft 455 kts 134°
2026-04-16 23:29 38.41496 -123.00618 24198 ft 451 kts 134°
2026-04-16 23:29 38.39272 -122.97817 23960 ft 449 kts 134°
2026-04-16 23:29 38.37049 -122.95025 23731 ft 448 kts 134°
2026-04-16 23:29 38.34834 -122.92244 23476 ft 446 kts 134°
2026-04-16 23:30 38.32655 -122.89511 23212 ft 445 kts 134°
2026-04-16 23:30 38.30450 -122.86748 22958 ft 445 kts 134°
2026-04-16 23:30 38.28246 -122.83991 22683 ft 443 kts 135°
2026-04-16 23:30 38.26055 -122.81251 22406 ft 441 kts 134°
2026-04-16 23:31 38.23871 -122.78526 22138 ft 438 kts 135°
2026-04-16 23:31 38.21404 -122.76288 21845 ft 436 kts 156°
2026-04-16 23:31 38.18526 -122.75237 21609 ft 428 kts 173°
2026-04-16 23:31 38.15600 -122.74543 21402 ft 428 kts 171°
2026-04-16 23:32 38.12678 -122.73773 21114 ft 428 kts 171°
2026-04-16 23:32 38.09783 -122.72990 20839 ft 423 kts 171°
2026-04-16 23:32 38.06900 -122.72191 20285 ft 423 kts 171°
2026-04-16 23:32 38.04050 -122.71390 19704 ft 416 kts 170°
2026-04-16 23:33 38.01245 -122.70597 19156 ft 410 kts 170°
2026-04-16 23:33 37.98489 -122.69795 18631 ft 404 kts 170°
2026-04-16 23:33 37.95812 -122.69012 18194 ft 382 kts 170°
2026-04-16 23:33 37.93283 -122.68273 17509 ft 365 kts 170°
2026-04-16 23:34 37.90776 -122.67511 16563 ft 376 kts 165°
2026-04-16 23:34 37.88434 -122.65958 15589 ft 387 kts 143°
2026-04-16 23:34 37.86383 -122.63717 14713 ft 391 kts 137°
2026-04-16 23:34 37.84336 -122.61475 14340 ft 381 kts 139°
2026-04-16 23:35 37.82367 -122.59372 14120 ft 358 kts 139°
2026-04-16 23:35 37.80482 -122.57369 13205 ft 351 kts 139°
2026-04-16 23:35 37.78656 -122.55416 12611 ft 335 kts 139°
2026-04-16 23:35 37.76886 -122.53505 11997 ft 337 kts 139°
2026-04-16 23:36 37.75117 -122.51584 11714 ft 330 kts 138°
2026-04-16 23:36 37.73361 -122.49726 11523 ft 330 kts 140°
2026-04-16 23:36 37.71579 -122.47895 11241 ft 330 kts 139°
2026-04-16 23:36 37.69828 -122.46049 11078 ft 325 kts 138°
2026-04-16 23:37 37.68120 -122.44209 11024 ft 323 kts 138°
2026-04-16 23:37 37.66412 -122.42370 11017 ft 324 kts 137°
2026-04-16 23:37 37.64702 -122.40517 10987 ft 322 kts 139°
2026-04-16 23:37 37.63019 -122.38741 10876 ft 309 kts 139°
2026-04-16 23:38 37.61349 -122.37049 10530 ft 306 kts 146°
2026-04-16 23:38 37.59437 -122.35941 10266 ft 299 kts 159°
2026-04-16 23:38 37.57584 -122.34833 10032 ft 291 kts 151°
2026-04-16 23:38 37.55823 -122.33641 9804 ft 284 kts 151°
2026-04-16 23:39 37.54082 -122.32497 9519 ft 279 kts 152°
2026-04-16 23:39 37.52366 -122.31400 9302 ft 273 kts 152°
2026-04-16 23:39 37.50686 -122.30330 9083 ft 268 kts 152°
2026-04-16 23:39 37.49030 -122.29283 8882 ft 265 kts 152°
2026-04-16 23:40 37.47386 -122.28256 8686 ft 262 kts 152°
2026-04-16 23:40 37.45752 -122.27240 8491 ft 262 kts 152°
2026-04-16 23:40 37.44122 -122.26232 8289 ft 261 kts 150°
2026-04-16 23:40 37.42726 -122.24846 8020 ft 253 kts 121°
2026-04-16 23:41 37.41890 -122.22979 7842 ft 246 kts 112°
2026-04-16 23:41 37.41100 -122.21079 7648 ft 244 kts 112°
2026-04-16 23:41 37.40303 -122.19189 7410 ft 246 kts 113°
2026-04-16 23:41 37.39492 -122.17301 7156 ft 245 kts 112°
2026-04-16 23:42 37.38719 -122.15414 6905 ft 239 kts 104°
2026-04-16 23:42 37.38582 -122.13414 6603 ft 225 kts 71°
2026-04-16 23:42 37.39344 -122.11808 6382 ft 210 kts 37°
2026-04-16 23:42 37.40640 -122.11135 6214 ft 200 kts 12°
2026-04-16 23:43 37.42007 -122.10788 6044 ft 202 kts 13°
2026-04-16 23:43 37.43390 -122.10413 5847 ft 203 kts 13°
2026-04-16 23:43 37.44728 -122.10054 5645 ft 189 kts 13°
2026-04-16 23:43 37.45978 -122.09717 5419 ft 179 kts 13°
2026-04-16 23:44 37.47171 -122.09398 5147 ft 173 kts 12°
2026-04-16 23:44 37.48347 -122.09493 4815 ft 175 kts 339°
2026-04-16 23:44 37.49283 -122.10493 4507 ft 177 kts 321°
2026-04-16 23:44 37.50172 -122.11537 4225 ft 171 kts 327°
2026-04-16 23:45 37.51001 -122.12611 3948 ft 173 kts 312°
2026-04-16 23:45 37.51615 -122.13914 3723 ft 172 kts 305°
2026-04-16 23:45 37.52210 -122.15200 3543 ft 168 kts 307°
2026-04-16 23:45 37.52818 -122.16449 3407 ft 168 kts 307°
2026-04-16 23:46 37.53237 -122.17265 3296 ft 167 kts 309°
2026-04-16 23:46 37.53857 -122.18510 3145 ft 169 kts 303°
2026-04-16 23:46 37.54383 -122.19840 2978 ft 169 kts 302°
2026-04-16 23:46 37.54908 -122.21178 2779 ft 172 kts 302°
2026-04-16 23:47 37.55447 -122.22520 2529 ft 171 kts 303°
2026-04-16 23:47 37.56010 -122.23832 2245 ft 169 kts 303°
2026-04-16 23:47 37.56566 -122.25122 2018 ft 168 kts 303°
2026-04-16 23:47 37.57122 -122.26425 1811 ft 168 kts 303°
2026-04-16 23:48 37.57674 -122.27699 1622 ft 161 kts 302°
2026-04-16 23:48 37.58184 -122.28884 1351 ft 146 kts 301°
2026-04-16 23:48 37.58651 -122.29958 1119 ft 136 kts 302°
2026-04-16 23:48 37.59121 -122.30985 912 ft 135 kts 302°
2026-04-16 23:49 37.59577 -122.32031 746 ft 136 kts 297°
2026-04-16 23:49 37.60001 -122.33081 569 ft 131 kts 298°
2026-04-16 23:49 37.60423 -122.34053 385 ft 124 kts 296°
2026-04-16 23:49 37.60813 -122.34982 211 ft 116 kts 296°
2026-04-16 23:50 37.61173 -122.35846 39 ft 107 kts 296°
2026-04-16 23:50 37.61488 -122.36598 20 ft 79 kts 298°
2026-04-16 23:50 37.61691 -122.37074 20 ft 54 kts 298°
2026-04-16 23:50 37.61847 -122.37453 20 ft 38 kts 297°
2026-04-16 23:51 37.61951 -122.37715 20 ft 32 kts 295°
2026-04-16 23:51 37.61955 -122.37953 20 ft 20 kts 230°
2026-04-16 23:51 37.61929 -122.38113 21 ft 20 kts 294°
2026-04-16 23:51 37.61994 -122.38272 20 ft 20 kts 298°
2026-04-16 23:52 37.62059 -122.38422 21 ft 18 kts 297°
2026-04-16 23:52 37.62086 -122.38527 20 ft 11 kts 251°
2026-04-16 23:52 37.62045 -122.38583 21 ft 6 kts 225°
2026-04-16 23:52 37.62048 -122.38635 20 ft 5 kts 296°
2026-04-16 23:53 37.62055 -122.38654 20 ft 0 kts 297°